John_paul K — PBHY — position and weather

sailwx.info

Track history (hours):
 
Tides and Currents Weather Stations Pressure Air Temp Water Temp Dewpoint Dewpoint Depression Visibility Wind Speed Wind Dir Waves Ship Positions

John_paul K

Last reported at 2014-Oct-25 12:28 UTC. Time now 2014-Oct-25 13:29 UTC.
Position N 51°55' E 003°49'.

Length 90 m; draft 5.7 m.

Type: Cargo ship. MMSI: 245181000.

Date/timePositionNaut miles runAvg speedWind from/ knotsBaromVisibWave heightAir tempDewpointWater temp
2014-Oct-25 12:28N 51°55' E 003°49'0 0.1
2014-Oct-25 10:28N 51°55' E 003°49'0 0.0
2014-Oct-25 09:31N 51°55' E 003°49'0 0.0
2014-Oct-25 08:31N 51°55' E 003°49'0 0.1
2014-Oct-25 06:13N 51°55' E 003°49'0 0.1
2014-Oct-25 05:31N 51°56' E 003°49'0 0.0
2014-Oct-25 04:28N 51°56' E 003°49'0 0.0
2014-Oct-25 03:28N 51°56' E 003°49'0 0.0
2014-Oct-25 01:28N 51°56' E 003°49'0 0.0
2014-Oct-25 00:31N 51°55' E 003°49'0 0.0
2014-Oct-24 23:25N 51°55' E 003°49'0 0.2
2014-Oct-24 22:31N 51°55' E 003°48'0 0.0
2014-Oct-24 21:25N 51°55' E 003°49'0 0.1
2014-Oct-24 20:19N 51°55' E 003°48'4 5.1
2014-Oct-24 19:28N 51°57' E 003°42'65 9.1
2014-Oct-24 12:19N 51°23' E 002°12'810.6
2014-Oct-24 11:33N 51°16' E 002°05'1010.3
2014-Oct-24 10:33N 51°09' E 001°53'9 9.5
2014-Oct-24 09:33N 51°03' E 001°43'8 7.9
2014-Oct-24 08:32N 50°57' E 001°34'  
2014-Oct-19 09:33N 38°12' W 009°41'8 8.3
2014-Oct-19 08:33N 38°03' W 009°38'1010.5
2014-Oct-19 07:33N 37°53' W 009°35'8 7.8
2014-Oct-19 06:33N 37°46' W 009°33'8 7.8
2014-Oct-19 05:33N 37°38' W 009°31'9 7.8
2014-Oct-19 04:22N 37°29' W 009°28'6 8.0
2014-Oct-19 03:33N 37°23' W 009°26'20 8.3
2014-Oct-19 01:05N 37°03' W 009°21'12 7.9
2014-Oct-18 23:31N 36°51' W 009°15'29 7.4
2014-Oct-18 19:33N 36°39' W 008°42'8 7.7
2014-Oct-18 18:30N 36°37' W 008°32'147 8.0
2014-Oct-18 00:15N 35°58' W 005°37'5 7.5
2014-Oct-17 23:33N 35°59' W 005°31'7 7.5
2014-Oct-17 22:33N 36°00' W 005°22'7 6.9
2014-Oct-17 21:33N 36°01' W 005°13'252 8.1
2014-Oct-16 14:32N 37°05' W 000°09'  
Track history (hours):
 
Tides and Currents Weather Stations Pressure Air Temp Water Temp Dewpoint Dewpoint Depression Visibility Wind Speed Wind Dir Waves Ship Positions

John_paul K

Last reported at 2014-Oct-25 12:28 UTC. Time now 2014-Oct-25 13:29 UTC.
Position N 51°55' E 003°49'.

Length 90 m; draft 5.7 m.

Type: Cargo ship. MMSI: 245181000.

Date/timePositionNaut miles runAvg speedWind from/ knotsBaromVisibWave heightAir tempDewpointWater temp
2014-Oct-25 12:28N 51°55' E 003°49'0 0.1
2014-Oct-25 10:28N 51°55' E 003°49'0 0.0
2014-Oct-25 09:31N 51°55' E 003°49'0 0.0
2014-Oct-25 08:31N 51°55' E 003°49'0 0.1
2014-Oct-25 06:13N 51°55' E 003°49'0 0.1
2014-Oct-25 05:31N 51°56' E 003°49'0 0.0
2014-Oct-25 04:28N 51°56' E 003°49'0 0.0
2014-Oct-25 03:28N 51°56' E 003°49'0 0.0
2014-Oct-25 01:28N 51°56' E 003°49'0 0.0
2014-Oct-25 00:31N 51°55' E 003°49'0 0.0
2014-Oct-24 23:25N 51°55' E 003°49'0 0.2
2014-Oct-24 22:31N 51°55' E 003°48'0 0.0
2014-Oct-24 21:25N 51°55' E 003°49'0 0.1
2014-Oct-24 20:19N 51°55' E 003°48'4 5.1
2014-Oct-24 19:28N 51°57' E 003°42'65 9.1
2014-Oct-24 12:19N 51°23' E 002°12'810.6
2014-Oct-24 11:33N 51°16' E 002°05'1010.3
2014-Oct-24 10:33N 51°09' E 001°53'9 9.5
2014-Oct-24 09:33N 51°03' E 001°43'8 7.9
2014-Oct-24 08:32N 50°57' E 001°34'  
2014-Oct-19 09:33N 38°12' W 009°41'8 8.3
2014-Oct-19 08:33N 38°03' W 009°38'1010.5
2014-Oct-19 07:33N 37°53' W 009°35'8 7.8
2014-Oct-19 06:33N 37°46' W 009°33'8 7.8
2014-Oct-19 05:33N 37°38' W 009°31'9 7.8
2014-Oct-19 04:22N 37°29' W 009°28'6 8.0
2014-Oct-19 03:33N 37°23' W 009°26'20 8.3
2014-Oct-19 01:05N 37°03' W 009°21'12 7.9
2014-Oct-18 23:31N 36°51' W 009°15'29 7.4
2014-Oct-18 19:33N 36°39' W 008°42'8 7.7
2014-Oct-18 18:30N 36°37' W 008°32'147 8.0
2014-Oct-18 00:15N 35°58' W 005°37'5 7.5
2014-Oct-17 23:33N 35°59' W 005°31'7 7.5
2014-Oct-17 22:33N 36°00' W 005°22'7 6.9
2014-Oct-17 21:33N 36°01' W 005°13'252 8.1
2014-Oct-16 14:32N 37°05' W 000°09'  

Dump ship's entire track history